GFSNIL_prec_cthk_000.txt.gz
RH
40 39 42 40 38 37 37 36 36 33 28 27 26 24 22 20 18 20 21 19 18 17
42 45 42 41 41 40 39 39 37 31 29 28 27 24 22 20 21 22 20 18 17 16
48 43 41 42 43 42 41 39 34 31 30 30 27 23 22 22 22 21 19 16 15 13
45 42 44 45 45 43 41 38 35 32 31 28 26 24 24 24 22 21 17 13 13 14
45 46 46 47 46 44 41 39 36 32 29 27 26 26 25 23 21 17 16 15 14 14
48 48 49 48 47 45 43 40 34 30 28 26 27 26 23 20 18 18 17 15 15 17
49 50 50 50 49 47 43 37 31 29 27 26 24 22 20 20 20 18 18 17 18 21
50 51 52 52 50 45 38 33 30 27 24 24 23 21 21 21 21 20 20 20 24 30
50 53 53 52 46 38 34 31 27 24 24 22 21 21 22 23 23 23 25 25 29 39
53 54 52 47 40 35 32 27 25 25 23 22 22 22 23 25 26 27 28 31 38 43
53 52 48 41 35 32 27 25 26 24 24 23 22 23 25 26 28 30 34 40 45 48
51 48 42 36 33 26 26 28 26 26 24 24 24 24 26 30 34 38 40 44 50 56
49 43 37 32 25 26 29 29 28 27 26 25 24 25 30 39 42 42 45 51 56 57
43 38 32 24 26 31 32 31 29 28 26 25 27 29 33 40 44 53 54 54 52 52

GFSNIL_prec_cthk_003.txt.gz
RH
43 42 42 41 42 43 41 39 37 35 32 28 27 28 26 24 23 22 23 22 20 19
44 45 46 46 42 42 42 42 39 36 33 28 28 26 24 23 23 23 22 20 17 15
45 51 54 46 42 44 46 44 41 38 33 29 27 25 24 24 24 21 17 15 14 14
51 59 51 44 45 48 47 45 42 37 32 28 26 26 25 23 19 16 15 14 15 15
58 57 49 48 50 50 49 45 42 36 29 28 27 26 23 18 16 16 17 18 17 16
58 56 50 48 52 51 48 46 39 32 29 29 27 23 19 18 17 19 20 19 20 20
61 53 47 51 52 50 48 42 35 31 31 28 24 21 19 18 20 20 21 21 22 22
58 48 50 51 50 51 44 37 33 32 29 26 22 20 20 21 22 22 22 23 25 27
53 50 45 48 51 44 38 34 33 31 28 24 23 22 22 25 23 23 24 27 29 32
50 42 46 50 45 38 34 34 31 29 26 25 25 23 23 23 24 25 29 32 34 36
41 45 49 46 38 34 34 32 30 28 28 27 25 23 24 25 26 31 34 35 37 41
45 48 45 39 35 33 31 31 30 30 29 26 24 24 26 27 31 32 32 36 41 46
48 44 40 38 32 30 31 31 32 30 27 26 25 25 28 32 33 33 34 34 37 40
45 42 39 31 28 30 31 31 30 28 27 26 25 25 29 31 37 36 36 37 38 38

GFSNIL_prec_cthk_006.txt.gz
RH
50 50 47 46 46 45 42 43 43 41 39 36 30 27 25 24 24 25 25 23 21 17
49 48 47 47 50 52 47 44 45 44 42 37 30 27 27 26 26 26 24 21 18 16
49 48 49 48 57 57 48 46 50 47 42 36 30 28 28 27 27 24 22 19 16 15
51 52 51 58 63 54 50 51 50 46 40 32 29 30 28 28 25 23 19 17 18 18
54 57 64 61 62 57 52 49 47 43 34 31 33 30 29 27 23 20 18 19 21 20
63 67 64 61 65 58 48 45 44 35 33 34 31 31 29 25 20 19 21 22 21 22
70 68 65 65 65 51 45 44 36 35 35 34 33 31 26 22 20 22 22 22 23 24
72 68 68 68 58 46 43 36 37 36 36 37 34 29 24 22 24 23 23 23 25 28
70 70 72 68 50 42 40 38 36 37 39 36 31 26 24 26 24 24 24 25 28 30
71 73 70 54 44 42 36 35 39 41 37 32 28 25 24 25 26 25 25 26 29 30
74 68 54 47 40 36 36 40 41 38 33 29 27 25 23 24 25 24 23 26 29 29
65 54 43 40 37 36 38 40 36 34 30 27 26 24 23 27 25 25 26 28 29 36
46 43 42 38 36 38 37 35 33 31 29 27 24 23 24 28 30 31 30 28 32 37
45 42 39 37 37 35 34 32 32 30 27 24 24 25 26 32 36 35 34 37 41 41

GFSNIL_prec_cthk_009.txt.gz
RH
45 49 52 54 54 52 50 50 50 47 45 43 39 38 33 29 28 27 26 27 28 27
48 53 55 55 53 52 50 52 57 53 47 44 41 37 31 29 28 27 29 30 28 25
51 54 55 56 54 55 54 58 63 56 48 42 37 32 31 29 28 31 31 30 26 22
53 55 58 58 58 60 65 62 64 59 46 35 31 31 32 30 32 33 33 29 23 21
57 58 59 61 64 70 70 65 64 54 37 31 32 35 31 33 36 35 31 25 22 22
60 61 63 68 74 74 71 66 64 44 34 34 36 35 35 38 38 33 26 23 23 24
62 65 71 75 78 76 71 70 59 40 37 38 36 36 39 40 34 27 24 24 24 23
66 72 75 77 78 75 74 64 47 40 38 36 38 40 40 34 27 24 24 23 22 22
70 74 77 80 78 79 66 51 40 34 37 38 40 41 33 26 25 24 23 21 19 20
73 78 80 80 81 68 51 38 35 38 37 41 40 31 26 25 27 24 21 21 21 22
79 81 83 76 64 46 36 36 36 37 41 38 30 26 25 25 24 22 23 24 27 29
83 77 69 56 42 37 38 35 37 41 36 30 27 25 22 25 24 25 26 28 31 32
71 64 48 40 39 37 34 39 39 35 32 29 25 23 22 27 28 28 28 32 31 33
52 45 44 41 36 35 38 38 36 33 29 26 24 23 23 29 32 33 34 31 33 35

GFSNIL_prec_cthk_012.txt.gz
RH
50 44 45 48 52 54 55 56 56 54 50 50 54 48 38 32 31 30 27 26 30 32
46 45 47 49 51 55 57 58 57 56 57 55 56 53 38 31 28 26 29 33 34 31
48 48 49 51 53 56 60 60 59 62 64 63 59 47 33 28 26 31 36 35 32 34
53 53 52 54 57 61 62 62 64 70 71 66 58 43 33 32 38 39 36 34 35 34
56 57 58 59 62 62 64 66 72 74 72 64 54 41 37 42 40 35 35 36 34 28
61 61 61 63 65 66 68 73 75 75 69 61 49 40 42 36 36 37 37 33 27 25
63 64 66 67 68 71 73 76 77 74 67 55 43 39 36 36 37 37 31 26 24 22
66 68 68 70 73 76 78 80 78 72 57 40 36 36 36 39 37 30 26 25 23 23
70 70 70 75 76 80 81 82 71 55 38 35 36 37 40 36 29 27 25 24 25 25
69 72 76 78 80 82 82 68 53 37 36 36 38 41 34 28 27 27 26 26 26 26
75 78 78 81 83 78 67 48 37 38 35 40 40 33 29 26 26 28 28 28 28 28
77 79 82 79 75 62 42 39 36 36 42 38 33 29 26 25 30 30 29 29 28 29
82 78 76 69 50 42 40 34 39 42 37 33 29 27 27 31 32 31 30 31 30 32
73 69 56 46 43 37 36 41 41 37 34 30 28 28 27 30 32 31 36 30 28 29

GFSNIL_prec_cthk_015.txt.gz
RH
61 56 56 47 45 46 48 52 57 59 61 61 60 60 58 52 41 33 30 28 28 31
61 59 52 48 49 48 50 54 58 61 64 63 63 64 62 54 41 35 32 35 38 39
61 55 50 53 53 52 53 56 61 65 67 65 65 67 64 50 42 37 39 41 39 33
57 53 54 57 58 58 58 61 67 69 68 68 68 68 59 50 44 42 42 36 32 32
56 57 58 59 61 63 63 68 71 71 72 72 71 68 58 49 42 38 33 33 34 31
61 61 61 61 65 65 69 72 73 75 75 76 75 65 52 41 36 34 35 34 31 25
64 65 63 64 67 70 74 74 77 78 80 79 69 54 41 36 36 36 35 29 26 26
68 66 66 66 70 74 75 77 81 83 82 71 56 41 37 37 37 35 28 27 27 28
68 67 65 70 73 75 80 83 84 84 71 56 39 38 39 39 34 28 28 28 29 28
66 67 70 72 77 81 84 85 83 70 52 38 39 40 40 33 28 28 29 30 29 30
68 71 76 81 83 85 87 78 66 46 38 39 41 39 31 28 28 30 31 29 29 29
77 82 83 84 86 84 73 58 41 39 40 43 37 31 29 30 31 31 29 28 28 28
84 85 85 84 76 66 47 41 37 43 43 35 31 31 31 31 33 30 29 29 28 27
83 81 78 69 50 44 38 39 44 41 35 32 32 32 29 26 32 30 34 30 27 26

GFSNIL_prec_cthk_018.txt.gz
RH
64 74 72 64 61 57 50 52 54 57 60 60 62 64 63 61 60 57 45 38 35 34
76 74 68 64 61 54 54 56 58 59 61 62 64 66 66 65 62 54 45 40 37 39
80 72 67 65 59 56 58 59 61 63 64 66 68 71 70 65 60 52 46 42 40 37
75 70 68 66 60 62 64 65 67 68 68 72 75 74 70 64 58 53 47 40 38 35
77 71 67 64 64 67 68 70 70 71 73 78 76 74 69 64 59 51 42 38 35 32
71 70 66 63 67 70 71 72 73 75 79 79 76 74 70 63 55 44 39 35 32 31
71 68 65 67 70 73 74 74 77 82 83 79 78 75 65 57 45 39 35 34 32 30
72 70 69 71 74 76 76 77 82 87 81 83 78 66 58 45 38 37 36 33 33 33
67 78 74 74 76 78 79 81 89 84 87 79 66 58 43 39 36 36 34 33 35 35
78 74 74 75 77 79 80 90 88 88 77 65 55 42 39 37 33 32 34 37 35 30
71 70 73 77 78 83 90 92 88 72 63 49 42 39 37 32 30 36 38 33 30 29
71 75 76 80 89 93 93 81 68 57 43 42 39 36 31 32 35 36 32 29 27 29
76 81 88 94 93 85 73 63 44 42 41 40 35 32 33 33 32 30 26 27 32 31
87 92 89 84 78 67 47 41 42 42 39 34 34 35 31 26 26 25 28 32 30 29

GFSNIL_prec_cthk_021.txt.gz
RH
51 59 64 71 74 75 69 66 59 55 57 58 59 61 62 62 62 62 60 55 50 47
58 67 68 71 76 72 67 66 58 59 62 62 63 64 65 65 66 66 64 58 49 45
67 69 74 75 77 69 70 64 59 62 64 65 68 71 71 71 71 71 65 54 50 47
72 78 74 80 73 70 68 62 64 66 69 72 73 74 73 75 76 69 60 53 54 48
79 77 78 79 73 70 69 65 68 70 72 75 76 77 79 80 74 66 58 59 50 41
77 80 83 78 73 72 66 68 71 72 75 78 76 80 85 81 70 63 61 52 42 35
86 86 81 79 76 69 67 70 74 78 79 80 80 86 85 74 66 61 52 43 36 34
89 85 86 78 73 66 73 76 80 81 81 85 87 88 76 66 60 51 40 35 35 35
92 88 80 77 69 76 79 82 82 82 87 91 88 77 66 59 49 36 35 36 35 36
90 83 77 71 82 88 83 80 81 87 92 87 76 65 57 44 35 33 35 36 37 34
83 76 82 90 81 76 80 82 88 93 84 71 62 54 40 35 33 34 37 37 32 27
89 84 75 73 76 79 83 94 91 78 67 58 46 38 35 34 34 35 34 30 25 26
70 70 72 75 79 95 95 83 71 61 49 42 37 35 34 35 33 32 28 24 23 24
70 74 83 94 93 86 74 61 48 44 39 38 36 36 35 31 26 28 25 23 22 23

GFSNIL_prec_cthk_024.txt.gz
RH
44 43 50 56 58 66 69 68 73 72 74 63 56 61 61 62 64 64 63 65 64 61
51 51 57 60 63 73 69 74 74 74 73 57 60 62 62 64 66 69 69 69 66 63
55 60 64 68 72 74 79 74 72 73 65 59 62 64 65 70 73 73 74 70 67 62
61 68 72 75 79 78 75 81 72 72 63 63 67 69 73 76 76 76 73 71 67 58
71 75 78 77 81 79 84 74 74 68 66 68 73 74 77 78 79 77 74 73 64 57
79 77 78 82 87 80 82 75 72 68 69 72 76 78 80 83 83 77 74 67 60 52
81 80 84 88 82 83 83 76 72 68 71 75 80 83 88 86 83 76 68 62 53 43
84 87 90 81 84 87 79 78 71 71 75 80 87 90 88 85 75 71 63 52 38 32
86 86 79 94 91 85 82 77 72 74 87 91 90 88 82 78 74 60 49 33 33 36
81 87 96 87 88 89 81 77 85 89 91 89 89 83 80 69 56 43 31 34 38 37
93 97 96 94 87 83 86 84 87 87 89 87 85 74 62 50 34 32 35 37 36 30
89 96 90 87 89 88 85 82 88 93 89 79 65 54 38 32 34 36 34 32 26 24
96 93 91 85 79 76 85 95 92 81 64 53 40 35 34 37 37 33 26 22 21 22
85 80 76 77 85 93 92 79 60 48 41 38 36 38 39 36 30 26 26 26 23 22

GFSNIL_prec_cthk_027.txt.gz
RH
45 54 56 59 62 61 61 64 67 74 79 75 70 69 68 61 61 63 65 66 67 68
51 57 54 61 64 62 65 65 72 78 77 75 76 70 71 63 65 65 66 70 72 70
61 61 59 66 62 64 69 73 80 80 77 84 77 75 71 66 67 68 71 73 74 71
64 65 64 68 67 70 74 79 80 74 94 78 74 76 68 70 72 74 74 76 76 74
56 61 68 69 71 75 83 83 88 93 78 81 79 72 69 74 76 78 79 79 78 76
59 70 69 72 76 83 85 91 85 87 88 79 77 70 75 78 81 84 84 81 77 74
78 72 75 79 82 83 83 90 89 89 83 78 75 74 78 83 89 89 86 80 76 66
76 77 80 80 85 85 89 92 81 86 80 78 76 79 87 88 89 87 82 76 68 57
78 79 80 89 88 94 93 88 87 86 83 81 84 89 91 92 89 82 76 67 52 36
79 83 86 90 93 91 93 87 88 90 91 91 90 94 89 87 81 71 59 42 32 36
89 90 97 93 95 95 98 98 97 94 91 93 88 86 85 75 63 45 33 34 38 34
93 96 91 98 94 98 94 90 91 95 85 85 85 77 63 44 34 34 38 36 30 26
98 98 98 97 94 91 89 88 85 86 82 71 53 42 35 34 38 39 32 27 23 21
97 97 96 89 79 85 89 85 78 60 47 41 35 34 38 39 34 31 27 23 19 18

GFSNIL_prec_cthk_030.txt.gz
RH
32 36 43 48 52 58 57 59 66 73 77 79 81 73 73 76 71 65 66 62 62 62
26 36 40 43 50 58 61 65 73 78 82 82 81 76 79 73 74 68 76 65 64 65
27 34 40 48 61 64 66 69 76 80 79 78 79 82 75 77 78 72 72 68 68 68
30 41 51 59 65 71 68 69 74 76 74 77 88 79 81 87 80 78 76 71 72 74
40 55 72 71 74 77 72 73 76 75 77 83 84 96 87 84 80 76 79 73 76 80
51 54 73 77 80 76 75 75 78 77 84 91 91 96 84 84 79 81 77 79 84 86
65 70 81 81 75 76 79 78 81 86 89 95 91 81 90 85 83 85 83 83 86 86
82 86 89 79 73 76 78 81 90 87 90 88 90 90 90 83 88 84 88 91 88 80
85 87 88 84 79 82 84 89 84 97 87 95 88 84 93 88 91 94 92 84 75 66
97 91 90 82 84 85 82 86 89 94 97 96 93 96 98 95 91 87 79 70 60 44
94 92 90 87 92 90 98 98 97 97 98 97 98 96 91 86 77 68 56 41 33 36
91 91 93 85 99 98 98 99 98 98 98 95 90 86 75 64 50 38 34 36 39 34
90 89 95 92 98 97 97 98 97 95 88 85 73 56 41 35 34 38 39 34 28 23
99 98 98 98 98 96 92 91 86 80 60 43 38 35 37 40 40 35 29 24 20 17

GFSNIL_prec_cthk_033.txt.gz
RH
26 30 34 39 38 43 55 57 58 64 65 66 71 79 82 82 90 78 72 68 70 65
23 25 29 31 37 39 43 54 67 64 66 74 77 83 85 85 93 79 76 79 70 74
24 25 25 27 32 38 42 52 66 65 73 77 82 88 90 86 78 83 76 75 78 83
32 33 31 28 29 37 45 52 63 70 78 80 83 86 87 82 81 72 84 79 87 89
35 37 40 38 37 43 50 62 73 80 84 80 80 78 79 76 76 88 89 95 93 82
41 44 45 49 49 56 63 71 79 82 80 80 78 78 79 79 87 96 94 94 90 90
55 58 58 59 59 68 80 82 83 82 82 82 79 79 86 85 95 94 91 89 90 89
60 72 74 70 68 72 80 83 84 81 80 83 78 87 89 89 97 97 96 93 93 96
67 77 78 79 74 79 83 80 82 84 85 81 83 88 99 90 96 94 91 97 94 84
82 90 85 87 87 90 80 83 87 84 83 90 89 98 96 97 98 98 95 87 78 69
88 88 88 97 97 92 93 88 90 90 89 98 98 98 98 98 96 87 79 69 56 41
95 98 97 91 97 93 93 89 97 96 95 97 97 98 94 86 76 61 48 36 34 38
98 99 94 96 95 96 98 97 98 98 96 97 92 84 64 49 36 34 36 38 33 28
94 91 94 98 98 98 98 98 97 92 82 63 51 39 37 37 37 34 30 26 23 20

GFSNIL_prec_cthk_036.txt.gz
RH
27 26 26 26 33 40 46 50 58 64 68 71 69 71 72 75 79 86 85 84 78 88
29 28 27 26 26 29 35 43 49 57 65 72 77 72 75 76 80 84 87 85 84 87
34 31 31 28 27 28 30 35 39 44 57 70 80 85 83 82 84 85 84 88 88 86
47 44 39 32 32 30 31 33 39 45 50 63 76 86 87 87 86 85 87 88 88 79
60 59 56 46 40 39 37 36 38 47 53 62 75 81 84 84 87 86 88 81 89 85
62 64 67 63 52 51 49 48 43 47 56 64 80 85 86 86 84 85 89 83 85 91
68 74 74 65 62 58 57 58 59 59 63 73 78 80 79 78 79 90 89 84 90 97
81 73 72 63 69 70 67 64 64 66 72 80 79 79 84 83 91 94 90 86 94 95
68 70 65 69 80 82 83 74 82 79 79 79 80 82 88 90 96 95 89 98 98 98
68 67 67 82 87 89 89 86 84 81 77 75 80 85 89 99 91 94 92 97 97 89
66 68 79 93 91 86 88 98 90 85 81 82 89 89 93 95 98 97 96 90 81 67
86 80 86 93 94 96 96 96 96 93 87 90 95 95 98 97 95 88 71 52 40 37
97 97 95 97 98 98 98 97 98 95 93 97 98 97 90 73 52 41 38 36 30 26
96 98 98 98 98 98 98 98 98 98 94 81 61 50 42 39 36 31 26 23 19 16

GFSNIL_prec_cthk_039.txt.gz
RH
25 25 26 28 29 30 34 39 49 54 57 60 65 70 76 78 80 82 82 83 85 84
31 30 29 29 28 27 27 27 32 43 56 62 65 68 75 82 85 87 85 84 85 84
42 42 41 37 34 33 32 30 31 33 39 50 59 66 73 80 88 94 92 87 86 83
49 52 52 54 49 45 40 36 34 36 39 41 47 56 62 69 82 90 98 90 88 86
50 59 63 63 63 61 57 52 47 42 42 44 47 51 54 61 70 85 87 96 88 84
56 55 57 66 71 74 72 70 64 57 51 47 51 55 58 61 65 71 74 83 83 90
71 79 70 65 67 72 78 77 71 67 63 58 58 64 66 68 68 76 85 82 92 88
57 71 78 82 82 84 78 78 76 75 71 69 69 74 73 70 83 79 85 88 88 89
54 63 69 76 79 80 78 84 82 81 77 75 73 74 75 74 85 84 86 90 90 91
62 62 66 70 74 81 88 92 89 86 81 88 96 97 96 88 84 86 92 89 91 97
82 85 70 75 82 93 97 96 98 90 88 88 84 79 81 85 90 90 89 95 95 89
89 91 91 86 97 98 96 98 97 92 95 98 94 91 98 98 98 95 93 78 57 45
93 95 97 97 98 98 97 98 98 97 98 98 98 95 96 92 77 57 48 38 32 24
94 96 96 97 97 98 98 98 98 98 96 89 71 55 48 43 39 33 26 20 14 11

GFSNIL_prec_cthk_042.txt.gz
RH
23 23 23 26 33 35 37 38 34 40 45 52 56 60 68 73 74 78 90 93 95 92
31 31 31 33 35 36 37 36 34 35 37 45 52 60 67 69 75 78 84 91 92 94
35 35 35 37 40 42 45 44 43 39 36 36 43 50 57 64 73 80 85 86 93 96
36 35 37 39 43 50 56 58 57 57 53 48 44 45 51 57 60 69 80 82 84 92
33 36 36 37 39 44 57 70 70 69 66 66 58 53 50 53 61 62 63 66 76 83
38 41 44 48 50 62 67 63 74 77 76 74 71 65 60 56 60 64 66 67 69 73
41 44 46 45 56 68 78 75 74 83 88 85 81 74 71 66 65 68 72 72 72 72
41 46 52 50 54 68 84 82 82 83 87 86 82 77 76 71 73 75 80 79 76 75
49 50 56 58 57 65 78 85 88 87 89 89 87 85 77 77 77 83 85 83 88 98
57 65 66 62 61 69 74 82 86 93 96 98 95 90 88 87 83 87 87 86 93 93
72 74 77 77 66 74 83 90 98 97 97 93 94 94 91 98 98 92 92 89 87 92
76 77 81 85 87 84 97 97 97 98 97 95 94 94 95 96 91 97 97 96 87 71
77 79 82 85 88 90 93 96 95 97 98 98 97 98 98 95 87 78 63 49 39 32
73 75 77 82 85 89 91 94 96 97 95 89 76 62 52 44 38 33 29 25 21 14

GFSNIL_prec_cthk_045.txt.gz
RH
25 26 26 28 30 35 42 43 45 43 42 44 48 52 56 60 61 62 64 70 85 85
33 33 33 33 34 35 37 40 44 49 44 46 51 56 60 62 64 63 67 73 79 84
38 35 33 33 32 33 37 41 45 49 50 50 51 57 66 67 67 70 68 73 76 79
37 38 35 33 32 34 34 37 40 42 48 50 53 59 69 70 68 68 70 71 73 81
34 30 31 36 35 35 36 35 38 45 53 64 67 60 75 81 81 71 68 72 77 80
33 33 34 34 34 36 39 43 46 53 62 76 81 71 71 86 91 85 76 68 69 74
38 35 34 34 35 37 42 46 55 63 75 79 80 76 86 93 94 94 85 76 74 72
45 39 37 38 40 42 46 49 57 66 74 79 81 87 89 94 95 90 87 81 76 77
47 43 42 46 50 50 50 57 59 68 73 77 82 87 90 93 89 90 86 82 82 81
57 55 56 60 62 61 55 61 70 75 82 81 88 95 95 94 95 88 86 83 86 86
63 64 66 66 67 66 60 67 75 84 89 94 98 96 97 98 94 95 97 93 87 90
67 66 68 69 71 74 74 76 80 84 88 92 95 96 95 98 97 94 97 97 95 88
62 61 64 66 67 69 73 76 80 82 84 90 95 94 94 96 93 86 76 67 55 47
59 59 60 60 62 64 66 67 66 62 59 58 54 47 42 37 34 31 27 23 19 14

GFSNIL_prec_cthk_048.txt.gz
RH
24 25 24 25 27 28 31 36 41 47 47 53 53 52 58 65 66 72 77 75 74 68
34 33 33 32 32 32 32 33 35 40 43 45 53 52 51 57 63 72 79 84 86 88
37 37 36 35 34 33 32 32 32 34 37 40 42 44 45 48 54 59 65 78 88 91
34 33 34 36 34 32 29 29 29 30 31 34 38 43 51 54 62 63 65 70 71 87
34 33 33 31 29 29 30 31 32 31 31 33 40 49 57 67 73 78 81 77 76 82
36 35 35 34 33 32 32 32 32 33 34 41 47 55 64 73 80 87 83 82 81 89
43 42 40 40 36 34 34 36 35 36 38 44 53 58 63 70 77 79 83 94 94 98
50 49 47 42 39 40 40 40 40 42 46 49 58 60 66 70 73 82 91 94 95 96
55 52 51 48 49 47 49 49 43 46 52 56 62 67 70 76 82 83 90 94 94 97
59 59 59 58 58 57 55 52 51 57 61 65 72 74 80 84 86 84 91 98 96 98
62 62 61 61 60 61 60 60 62 67 68 71 75 78 81 84 89 91 91 95 97 98
64 61 61 61 60 59 59 59 61 64 67 71 74 78 80 82 83 88 92 94 94 93
58 57 56 55 54 54 55 56 58 56 55 56 58 55 49 44 40 40 41 39 34 27
50 50 50 50 49 45 39 34 30 28 27 26 25 22 20 18 17 16 15 15 14 13

GFSNIL_prec_cthk_051.txt.gz
RH
24 24 25 25 25 25 25 26 32 36 38 36 40 42 41 44 50 53 57 60 65 74
30 32 33 34 33 33 33 32 32 32 35 38 37 38 41 42 39 42 45 48 59 66
33 33 34 34 33 33 32 32 32 32 30 33 35 36 37 38 38 40 42 48 55 59
34 34 33 33 32 31 30 30 28 28 28 27 28 32 34 34 39 45 50 53 64 69
37 36 34 32 31 30 30 29 29 28 27 28 28 29 31 38 45 51 53 57 65 73
37 36 35 35 34 35 34 31 29 28 29 29 30 33 38 44 48 53 54 55 65 73
40 40 41 43 43 41 37 32 32 36 36 34 37 43 45 49 51 56 62 62 65 73
46 48 50 49 47 43 41 40 43 45 43 42 44 47 50 54 56 59 65 69 67 80
52 52 52 52 52 51 49 50 51 49 47 47 50 55 57 58 62 66 69 71 76 86
54 55 56 58 58 56 55 55 55 55 56 58 58 60 62 64 67 70 75 78 80 86
55 56 57 60 59 58 56 56 55 54 55 56 58 60 62 64 67 71 76 80 84 86
56 56 57 58 55 53 53 52 51 50 51 50 50 45 39 35 35 35 36 36 35 31
49 50 52 51 49 48 45 36 33 31 29 24 22 19 17 16 15 15 14 14 14 13
48 48 47 45 40 34 29 26 25 24 23 22 20 18 17 16 16 15 15 16 16 17

GFSNIL_prec_cthk_054.txt.gz
RH
22 23 23 22 22 22 23 23 24 25 27 31 34 35 36 38 42 41 41 45 42 42
27 27 27 28 28 30 31 32 32 32 32 31 32 36 37 36 38 36 36 34 36 39
31 30 30 31 30 30 32 32 31 31 30 31 31 31 32 33 33 34 33 35 37 39
34 33 33 32 31 32 32 31 30 28 28 27 27 27 28 29 31 32 34 38 42 45
37 37 36 36 34 31 30 29 29 29 29 27 26 27 29 30 32 35 39 44 45 48
38 38 38 36 35 35 35 35 34 32 29 26 26 30 31 35 38 41 45 47 48 51
41 40 40 40 41 42 43 42 39 37 33 34 36 35 36 41 44 46 50 50 52 55
46 45 45 47 47 46 44 43 43 43 44 44 41 39 43 46 50 52 54 53 59 62
50 50 51 50 50 51 50 51 50 51 50 49 48 51 50 54 54 56 57 60 63 65
52 53 52 53 54 54 54 55 55 56 56 55 54 54 54 55 56 56 59 61 63 65
53 53 53 55 55 55 56 54 53 53 53 51 50 47 44 41 37 35 34 32 33 33
53 53 54 52 50 49 52 50 45 41 36 29 24 21 18 18 16 15 14 13 13 13
48 47 47 47 48 46 38 33 29 25 22 21 20 18 16 16 15 14 14 14 15 15
44 45 46 46 42 33 28 26 25 24 22 22 20 19 18 17 17 17 18 19 20 21

GFSNIL_prec_cthk_057.txt.gz
RH
26 25 24 23 24 24 24 25 25 24 23 23 25 29 36 40 40 42 42 40 39 37
27 26 28 28 29 29 30 30 30 30 31 32 33 34 35 38 40 42 42 42 39 37
31 32 33 33 34 33 32 31 29 29 31 32 32 33 34 35 35 36 36 37 36 33
36 37 37 35 34 33 32 31 31 31 31 30 29 28 27 27 29 30 32 33 33 34
42 40 38 37 35 34 33 32 31 30 30 29 29 28 27 27 28 30 30 33 35 41
42 40 39 38 37 36 35 35 35 35 35 32 31 30 29 28 30 31 34 39 42 46
42 42 41 40 40 39 40 41 42 41 40 39 37 35 35 36 37 38 43 45 46 49
46 46 44 43 43 45 45 43 44 44 43 42 43 43 43 42 41 44 48 50 51 52
48 49 48 47 48 47 47 47 48 49 49 50 49 49 50 49 50 50 52 52 54 56
49 49 49 50 50 51 51 51 51 52 54 54 53 53 52 51 48 45 43 43 41 40
50 50 51 52 52 51 51 50 50 51 51 51 46 36 31 26 22 19 17 16 16 15
51 51 51 50 49 48 48 47 46 43 32 24 21 19 17 16 15 15 15 14 14 14
49 48 48 48 47 46 40 34 30 25 23 21 20 19 18 17 17 17 17 17 18 19
46 45 46 47 44 32 28 27 26 25 23 21 20 20 20 19 20 21 21 22 23 24

GFSNIL_prec_cthk_060.txt.gz
RH
31 31 30 27 26 26 26 26 24 25 26 26 26 26 26 30 35 41 46 47 50 47
32 31 30 30 30 29 28 27 29 30 31 32 32 32 33 35 39 42 46 46 45 45
35 33 32 31 30 31 32 33 34 34 33 32 29 29 31 35 38 41 43 44 43 42
35 35 34 33 34 35 36 36 35 33 31 30 29 29 29 29 30 32 35 37 37 36
41 41 41 40 39 40 39 38 34 33 31 31 31 31 31 31 31 32 33 34 35 36
41 41 42 44 44 43 40 36 36 35 36 37 38 37 35 33 33 33 33 36 37 39
46 46 46 46 44 42 39 39 40 42 43 43 41 40 39 38 38 40 40 40 43 47
50 51 48 46 43 44 43 44 46 45 45 44 43 43 44 44 45 45 45 48 52 52
53 53 51 49 49 49 50 49 50 50 48 48 47 48 49 51 52 52 53 52 51 51
56 53 52 51 51 51 51 52 52 50 50 49 48 48 50 50 48 42 33 29 25 22
54 53 51 52 52 53 53 52 50 49 47 45 41 32 25 21 19 16 15 14 14 14
53 53 52 53 53 52 50 48 48 45 35 25 22 19 18 17 16 15 16 17 17 18
54 53 52 51 49 48 48 43 32 23 23 22 21 19 18 18 18 19 20 21 22 23
54 51 49 47 48 44 34 27 24 24 25 24 23 21 20 21 22 23 24 25 26 26

GFSNIL_prec_cthk_063.txt.gz
RH
38 36 35 34 33 32 31 30 28 27 26 26 26 24 26 28 29 32 35 38 46 49
38 36 34 34 34 33 32 30 30 29 29 26 28 29 30 32 33 32 36 42 46 46
40 39 36 35 35 35 34 32 30 28 29 30 30 31 31 29 29 34 38 41 43 43
45 43 40 38 37 36 35 33 33 32 32 33 32 31 28 27 29 32 36 37 40 41
49 48 45 44 41 39 40 40 39 39 38 36 34 31 30 31 33 35 36 37 38 38
52 51 48 47 46 44 44 43 42 41 39 37 35 36 39 38 37 36 36 37 37 39
53 55 54 52 50 49 45 44 46 43 40 41 42 41 40 41 40 39 39 40 42 43
55 55 54 54 52 51 50 48 45 46 46 46 46 45 44 45 44 44 43 45 48 52
56 56 56 56 57 56 53 54 54 50 52 53 49 47 47 47 48 48 49 50 51 50
64 65 66 65 64 64 59 55 57 55 53 51 50 49 47 45 41 34 28 24 21 20
64 66 67 61 58 57 58 60 57 54 52 51 47 36 24 18 17 16 15 16 15 16
66 62 60 60 58 58 59 57 54 52 46 33 23 19 17 17 17 17 17 18 19 20
69 65 61 60 59 58 56 55 50 39 27 23 21 20 20 19 18 19 20 22 23 24
73 72 67 62 59 60 53 44 31 27 26 24 24 24 23 24 25 27 28 29 29 29

GFSNIL_prec_cthk_066.txt.gz
RH
47 43 41 40 38 36 35 34 34 34 33 32 32 30 29 29 28 28 30 34 37 41
49 46 43 42 40 39 37 35 34 34 34 33 31 30 29 27 28 31 34 38 38 39
45 47 46 45 42 39 38 37 36 35 35 34 32 30 28 29 31 32 35 38 36 41
44 46 48 48 46 44 43 40 39 38 37 35 32 32 32 32 32 32 32 33 36 40
46 46 47 49 50 49 48 47 44 43 40 37 38 36 36 35 33 34 33 37 40 40
47 47 47 49 51 52 52 51 50 47 45 42 40 38 38 39 38 38 40 40 40 39
51 49 48 48 49 54 55 55 54 51 48 46 42 43 43 42 41 41 41 39 37 39
52 51 50 50 53 53 54 55 55 53 50 49 49 48 44 45 47 44 43 42 44 44
60 56 55 54 55 56 58 60 61 59 58 55 54 57 55 51 49 49 48 49 50 47
63 62 62 60 63 63 67 65 63 67 68 65 59 55 56 50 47 43 34 28 26 20
69 69 68 67 67 66 68 70 70 68 66 64 62 56 45 29 22 18 16 16 16 16
73 73 71 70 68 70 69 70 69 68 62 58 46 27 21 19 18 17 18 18 18 19
75 76 75 72 71 72 69 68 65 62 52 37 26 23 21 21 21 22 21 21 23 24
79 79 77 75 76 72 66 63 62 50 33 28 26 24 24 25 26 26 27 29 32 34

GFSNIL_prec_cthk_069.txt.gz
RH
57 55 53 52 50 46 42 40 38 37 35 34 33 34 34 33 32 32 30 31 34 34
61 59 58 56 52 48 46 44 42 41 40 39 37 35 35 34 33 32 31 30 34 39
59 57 54 50 47 46 47 47 46 45 43 40 38 36 36 35 34 33 32 31 37 42
61 57 51 48 46 45 45 48 49 49 47 45 42 39 37 37 36 34 33 36 38 40
56 52 49 46 44 43 44 45 48 51 51 50 49 47 44 41 38 37 37 36 39 41
58 55 51 49 48 46 46 45 45 49 52 54 53 53 49 47 43 41 41 41 45 43
54 55 56 52 50 49 49 48 49 49 51 53 54 54 52 50 47 48 47 47 43 42
55 56 53 51 51 50 50 51 51 52 54 53 53 53 53 52 51 51 49 46 49 50
58 58 57 57 58 57 54 55 55 56 57 57 57 58 57 58 57 55 58 55 51 51
63 63 63 61 60 60 61 64 63 63 64 65 65 66 66 63 63 62 57 54 49 34
66 65 67 67 66 68 68 69 69 69 70 71 72 70 68 63 56 43 29 23 20 17
74 74 74 73 73 72 73 72 73 74 74 75 69 66 57 40 30 25 21 20 20 21
76 78 80 78 74 76 78 75 74 76 76 73 67 46 33 26 23 22 23 24 24 24
74 73 80 81 81 80 78 78 77 75 72 60 43 33 27 26 27 27 27 28 29 30

GFSNIL_prec_cthk_072.txt.gz
RH
71 71 69 72 73 68 60 55 51 49 48 46 44 42 40 38 37 36 36 35 38 40
65 66 66 67 64 59 58 56 53 51 50 49 48 46 45 44 41 39 37 36 35 35
70 70 71 69 68 63 61 57 52 50 47 47 48 49 49 48 45 40 39 37 38 37
70 74 70 67 66 64 60 55 51 47 46 45 47 50 50 50 50 48 45 41 39 40
69 70 66 65 64 61 53 48 46 47 47 44 45 46 50 51 51 51 49 47 45 42
53 56 59 60 61 57 58 56 51 50 49 49 48 48 49 50 51 52 52 50 50 51
48 49 51 53 56 57 55 53 54 53 52 50 50 51 52 53 54 53 53 53 54 52
53 53 53 54 54 52 52 51 52 52 51 52 52 53 54 53 55 54 56 57 57 52
58 58 57 57 56 55 54 54 54 56 60 57 58 57 58 60 62 64 64 61 59 58
61 59 58 58 58 58 59 58 58 59 61 62 66 65 66 68 70 69 68 70 68 67
65 65 64 65 65 65 65 66 66 66 68 70 71 72 71 73 73 71 69 60 49 38
71 70 69 68 68 70 71 70 71 72 75 75 75 75 77 76 66 50 43 37 33 28
78 77 72 68 68 70 75 76 73 76 77 77 80 81 76 61 47 38 33 29 28 26
76 76 71 68 68 71 74 81 82 83 85 83 80 72 57 44 37 31 29 29 30 32

GFSNIL_prec_cthk_075.txt.gz
RH
67 69 69 71 71 69 70 70 68 68 65 60 56 53 49 48 48 47 46 45 43 41
71 70 70 73 74 70 69 69 68 65 63 60 56 52 50 49 48 49 49 48 46 43
75 76 77 74 71 71 74 70 68 65 61 59 56 52 51 49 48 48 49 49 48 47
78 77 79 72 71 72 74 69 67 64 62 56 53 50 49 49 46 45 47 49 50 48
72 70 66 61 66 72 71 67 63 61 58 52 53 53 52 50 50 49 48 48 49 50
50 50 53 55 56 55 58 58 56 58 59 56 57 59 57 53 52 53 51 51 51 51
44 46 47 47 47 50 49 48 49 49 51 52 53 54 55 54 54 56 55 55 54 55
51 51 52 52 52 52 51 50 50 51 51 51 52 54 55 57 55 54 55 57 57 57
54 56 57 58 58 58 56 54 54 54 54 55 57 58 57 57 61 63 63 64 64 66
59 60 61 60 59 58 58 57 57 58 59 59 60 61 63 64 65 66 70 70 72 71
64 66 66 65 64 65 64 64 64 66 66 65 64 66 67 71 74 75 73 74 73 71
70 73 72 73 72 70 68 66 66 68 70 72 72 71 74 77 80 80 73 64 55 44
76 78 80 79 78 76 71 68 66 69 71 76 78 81 81 82 79 66 56 49 43 39
77 78 77 78 77 76 72 68 70 71 74 82 85 88 87 74 63 51 46 40 38 34

GFSNIL_prec_cthk_078.txt.gz
RH
74 76 76 76 73 74 73 73 76 72 71 68 65 63 60 59 56 53 50 48 47 48
64 66 70 72 72 73 75 77 78 78 77 71 69 68 66 61 57 54 50 49 50 49
68 70 72 75 81 81 82 80 72 72 75 70 70 68 64 60 56 54 51 50 49 48
66 69 74 79 79 80 85 78 69 71 74 69 68 66 61 57 52 53 52 50 49 49
52 65 73 74 77 77 71 65 63 68 68 64 62 59 57 58 57 57 57 55 54 52
42 47 53 60 60 60 58 55 56 52 48 50 51 50 52 53 53 53 55 55 58 56
39 41 43 46 47 47 46 47 48 47 44 45 45 47 45 46 48 48 51 52 52 52
46 46 47 48 49 50 51 52 52 52 52 51 50 48 48 49 49 50 52 54 56 59
54 54 54 55 55 57 58 58 57 55 55 55 54 53 55 55 54 53 55 59 60 62
59 59 60 62 63 63 61 59 57 57 57 58 58 59 58 57 58 60 63 64 67 69
60 63 66 69 69 67 67 66 66 65 64 63 63 63 64 65 67 68 70 72 75 76
61 65 68 71 74 75 76 76 74 72 71 69 65 63 68 72 74 77 78 80 78 71
65 68 73 76 80 83 81 81 81 77 75 72 66 70 71 81 85 85 84 71 61 53
68 71 75 77 81 85 82 79 76 75 72 69 70 74 77 85 86 81 69 55 50 52

GFSNIL_prec_cthk_081.txt.gz
RH
64 70 72 75 74 79 82 82 82 84 82 81 75 74 74 70 70 66 62 60 59 55
58 61 63 65 71 76 76 79 80 79 81 80 77 74 72 69 70 65 62 60 57 54
52 55 56 56 59 66 71 74 74 75 82 79 74 71 67 68 67 64 63 60 54 51
45 50 54 57 61 64 72 79 80 83 86 78 69 64 67 68 66 63 61 59 57 55
36 38 42 47 59 68 73 76 80 78 80 69 66 59 56 53 49 50 51 55 56 56
33 36 39 42 44 51 59 65 69 67 63 59 55 48 44 42 42 43 43 45 46 48
36 38 39 40 42 44 46 48 50 50 48 46 46 46 45 45 45 46 47 48 48 50
41 41 41 42 44 45 47 49 49 50 50 49 50 51 50 49 48 49 51 52 53 56
47 47 48 49 50 52 53 54 53 54 54 54 52 51 52 53 55 55 55 55 57 59
54 55 56 56 56 58 60 62 61 59 56 55 56 57 57 57 57 56 59 62 65 66
57 60 59 59 60 65 66 64 62 62 64 64 63 63 62 63 63 59 61 67 71 72
59 62 62 62 64 67 68 68 68 70 70 69 67 67 69 70 68 63 66 73 79 80
62 63 64 63 62 65 68 71 73 74 75 74 74 75 76 73 68 69 72 77 81 73
63 64 66 66 66 69 72 74 74 75 77 77 72 69 67 66 68 74 77 77 68 60

GFSNIL_prec_cthk_084.txt.gz
RH
54 58 61 67 73 76 78 80 79 81 84 86 87 84 82 80 77 74 73 69 67 65
52 53 55 60 64 66 70 71 72 73 78 79 80 82 77 78 74 73 69 67 65 63
47 50 52 51 51 53 56 60 63 64 66 70 77 78 80 74 69 65 64 63 65 64
41 43 46 47 49 50 52 54 60 61 66 68 75 80 80 77 68 64 63 60 54 50
33 35 37 37 40 44 48 51 54 58 64 68 72 75 74 68 64 61 55 47 41 40
31 30 31 32 33 36 39 42 46 49 51 52 56 60 59 53 47 41 40 41 41 42
31 32 33 35 36 38 39 41 42 44 48 50 49 47 44 43 43 43 44 44 45 46
36 37 38 39 41 42 42 43 43 44 46 47 47 46 46 47 46 46 46 45 47 50
43 43 43 44 43 44 45 46 47 49 50 51 51 51 51 50 49 49 51 52 53 53
45 48 50 50 49 50 52 53 55 56 56 56 56 55 54 55 57 58 59 60 59 59
48 51 53 53 55 57 57 59 61 62 63 63 62 61 61 61 63 64 64 64 65 64
50 53 55 56 58 60 61 62 64 66 66 66 65 64 64 65 67 69 68 67 69 66
54 57 58 60 62 64 65 66 66 66 66 66 68 68 68 70 75 73 66 65 65 67
56 61 64 65 65 67 68 68 68 68 70 70 71 70 69 73 68 66 75 79 71 69

GFSNIL_prec_cthk_087.txt.gz
RH
57 54 53 56 56 58 66 70 76 79 74 73 75 75 78 82 80 79 75 73 73 71
49 48 47 47 50 53 56 60 63 64 67 68 66 64 65 67 69 67 68 65 64 63
50 48 47 48 47 47 49 52 56 57 59 60 61 62 60 60 62 67 66 65 63 63
41 40 41 43 45 44 46 49 52 53 55 57 58 57 58 59 61 64 65 65 63 62
28 29 32 37 39 40 42 45 50 54 57 56 55 53 54 55 55 59 59 56 54 46
28 29 29 29 30 31 34 36 37 39 41 44 45 46 45 48 48 49 45 41 38 38
30 31 32 32 34 34 34 34 35 37 39 40 42 44 46 46 47 45 43 41 40 40
33 34 35 37 37 36 37 37 38 39 42 44 45 46 47 45 45 44 43 44 43 43
36 37 40 42 43 44 45 45 45 46 48 50 48 49 47 48 47 48 48 48 48 49
43 43 42 44 46 48 50 50 49 51 53 52 51 53 51 52 53 55 55 54 55 56
47 48 48 51 52 53 55 55 56 58 57 58 58 57 57 58 59 59 59 59 60 60
49 55 58 57 60 62 62 61 61 62 61 62 62 62 62 63 64 62 62 62 64 66
53 56 62 67 67 68 67 67 69 67 67 68 67 66 65 63 63 63 63 62 64 63
59 61 67 71 73 75 74 73 74 74 73 73 71 69 65 63 65 66 66 66 65 68

GFSNIL_prec_cthk_090.txt.gz
RH
68 70 70 67 65 61 61 64 69 77 82 83 85 78 74 72 69 66 64 63 60 60
63 61 60 57 57 56 54 55 64 65 69 71 71 72 69 64 62 59 60 61 62 61
59 56 53 51 50 50 50 52 54 60 61 62 64 64 63 60 58 57 57 59 63 67
56 56 55 52 49 49 48 50 52 54 56 57 59 59 59 58 57 56 55 54 54 57
43 41 39 39 38 36 38 41 44 48 52 58 60 59 57 57 56 54 48 45 45 43
39 38 36 34 32 32 32 35 38 42 45 49 52 51 51 48 46 45 44 42 44 42
32 32 32 32 32 33 34 34 35 37 39 39 40 41 41 41 42 42 44 43 42 38
34 34 33 34 35 35 38 40 39 39 39 39 39 40 40 41 43 44 44 41 38 39
35 36 37 38 39 40 42 43 46 45 43 43 44 44 44 46 47 47 44 44 41 45
38 39 43 46 48 48 48 47 48 49 50 50 51 52 53 55 52 50 51 50 50 50
42 44 46 50 53 54 56 56 56 56 57 57 57 61 61 61 58 57 57 55 54 53
47 48 49 55 60 62 63 63 65 65 66 66 67 67 67 67 66 65 60 61 59 58
49 50 52 54 60 65 69 70 70 72 73 77 76 78 76 75 71 69 69 68 64 61
51 52 54 56 61 68 72 74 75 75 76 80 81 79 78 80 79 77 74 71 66 64

GFSNIL_prec_cthk_093.txt.gz
RH
89 87 84 91 92 88 81 78 76 80 83 81 89 89 91 89 80 75 76 70 61 60
77 75 72 69 69 70 67 62 60 61 63 67 74 82 84 76 72 71 67 63 60 59
64 65 66 65 61 60 61 60 58 59 62 62 66 79 72 66 65 65 62 57 59 56
62 62 63 60 59 56 55 53 51 50 53 57 65 67 68 68 63 61 60 58 55 55
50 50 50 49 48 47 47 46 43 42 43 50 53 55 60 60 63 63 62 60 56 56
37 36 37 39 40 42 42 40 39 39 39 45 51 54 58 61 62 64 61 58 54 49
31 31 31 31 32 33 35 36 35 35 36 39 43 46 49 52 53 52 50 48 47 46
34 34 34 35 35 35 35 35 36 37 38 39 41 43 45 47 47 46 46 45 45 46
36 36 36 37 40 42 43 44 43 44 44 44 45 46 45 45 45 45 46 47 46 45
35 35 36 37 39 43 45 47 48 50 50 50 49 51 50 52 51 51 51 53 51 51
35 36 39 41 41 45 48 51 52 53 55 55 55 56 56 58 56 57 58 59 61 60
35 37 40 41 43 46 51 55 59 60 59 60 59 63 64 66 65 67 68 67 66 64
40 39 40 40 42 46 49 56 62 67 68 68 67 66 71 74 75 75 78 78 77 72
43 43 44 45 45 49 52 58 63 67 71 72 73 73 77 80 80 86 83 82 80 81

GFSNIL_prec_cthk_096.txt.gz
RH
87 88 88 89 89 90 91 93 92 88 87 89 81 83 90 94 93 90 83 83 73 69
93 94 92 89 88 88 87 84 83 81 77 70 66 69 69 78 85 87 78 78 74 70
79 78 76 75 73 78 70 70 66 64 65 64 59 61 66 71 85 82 77 75 70 63
66 66 66 63 62 62 61 58 57 55 55 53 54 56 60 67 71 75 70 71 66 60
49 49 50 50 52 52 52 51 49 48 46 45 46 49 51 54 64 69 67 71 72 66
33 33 33 32 33 34 36 38 39 40 42 43 44 45 50 51 54 62 72 75 72 68
30 29 29 30 30 31 31 31 31 33 36 39 43 44 46 48 52 56 58 61 62 62
36 37 37 35 36 37 39 38 38 37 37 38 38 42 44 47 50 53 53 54 55 53
34 34 34 33 34 36 36 39 41 41 41 41 42 45 48 50 52 51 51 51 50 51
33 30 30 30 31 31 32 35 38 42 44 46 47 49 51 52 51 50 51 53 52 51
28 29 31 32 30 34 36 33 37 43 47 47 46 51 55 58 58 59 60 59 59 57
31 29 28 29 32 33 34 37 40 45 49 49 51 59 61 60 60 63 65 66 68 68
32 32 32 33 35 37 40 43 44 45 49 55 57 63 64 67 67 66 73 74 74 74
35 36 38 39 39 40 43 47 49 47 51 57 62 64 69 73 74 74 80 79 82 83

GFSNIL_prec_cthk_099.txt.gz
RH
87 91 89 91 90 90 89 94 93 95 95 91 91 86 87 82 90 92 91 91 86 90
93 96 93 93 92 92 91 91 93 95 88 86 86 83 77 80 77 82 91 94 93 87
91 93 94 91 90 90 86 84 82 83 81 79 79 73 70 67 66 70 77 88 94 88
80 76 75 73 73 71 71 70 74 73 68 66 66 63 59 59 62 72 79 82 83 84
62 64 62 62 60 59 57 57 56 56 56 55 54 52 53 56 64 68 71 76 76 79
42 40 37 35 33 33 33 33 35 39 40 42 43 44 44 47 51 55 60 70 77 80
33 32 30 30 30 30 32 33 34 32 32 34 35 37 40 45 48 49 52 55 58 62
35 33 32 31 30 30 30 31 32 34 35 33 35 37 40 43 45 46 49 52 55 58
30 29 28 27 27 26 27 28 28 30 33 35 35 38 39 39 42 46 48 49 52 57
28 28 27 26 26 26 26 28 29 29 31 32 36 38 41 43 44 47 48 52 54 54
24 25 27 25 24 25 26 27 28 30 34 37 38 40 44 48 50 50 52 55 57 56
29 27 25 27 27 28 28 28 30 31 34 37 39 46 51 54 54 54 54 57 59 61
28 27 26 27 29 29 29 31 32 35 37 39 42 45 52 58 60 59 62 62 63 63
24 21 19 19 20 25 27 28 30 33 35 41 45 47 51 59 62 65 66 68 73 70

GFSNIL_prec_cthk_102.txt.gz
RH
98 97 95 97 96 96 97 96 94 93 93 91 87 88 94 94 89 89 91 91 91 94
98 98 98 98 97 98 95 94 95 96 97 94 94 94 92 94 90 91 92 91 90 91
96 97 94 96 95 93 94 95 96 95 94 92 93 92 92 88 85 83 85 84 87 90
93 95 95 94 94 94 93 93 94 92 91 88 85 85 85 88 84 80 77 76 75 83
85 81 78 76 73 75 75 71 70 71 73 75 75 75 75 75 69 65 66 65 67 72
60 57 53 51 50 50 49 48 48 47 49 52 54 55 56 56 56 58 57 58 63 62
38 37 35 34 32 32 33 33 33 32 31 32 32 33 36 37 40 43 46 48 52 59
37 36 34 32 30 30 29 29 28 30 29 29 32 34 35 35 36 40 41 43 48 52
30 29 27 27 26 26 26 25 26 25 25 25 27 30 31 32 35 39 41 39 43 44
25 24 23 23 23 23 23 23 22 23 24 24 26 29 31 33 34 36 41 46 48 48
24 24 22 22 22 21 21 21 21 21 22 23 24 29 33 36 37 38 40 43 48 52
26 24 23 23 21 21 20 19 20 21 21 23 26 29 33 36 39 41 43 46 47 51
25 23 20 18 17 16 16 17 17 17 18 20 24 30 33 37 40 40 43 47 50 50
19 18 17 16 17 15 14 14 14 16 17 18 17 25 29 36 43 47 49 50 54 60

GFSNIL_prec_cthk_105.txt.gz
RH
99 95 93 96 97 97 95 96 95 92 88 91 90 86 94 96 94 93 89 89 85 89
99 98 98 99 97 98 97 95 94 95 95 94 93 94 95 93 95 94 90 88 86 94
99 98 98 97 97 97 98 98 98 97 96 94 96 96 95 92 92 92 89 89 96 94
94 94 96 97 98 96 96 96 97 98 97 97 98 97 96 94 95 91 90 92 90 90
95 92 92 96 96 96 97 97 95 94 94 94 94 93 92 91 91 89 90 91 89 86
75 73 71 71 71 70 74 72 72 72 71 71 71 73 74 75 76 77 73 74 74 70
54 52 50 50 48 46 45 45 44 44 43 43 44 44 43 45 47 48 49 52 53 54
40 39 38 37 36 34 33 32 31 31 31 31 31 31 31 31 32 33 34 36 38 39
32 30 30 29 27 27 26 25 25 25 25 26 28 29 30 31 31 31 32 33 36 37
24 23 22 21 20 20 20 20 20 21 21 22 22 24 25 28 31 32 34 35 36 37
21 20 19 19 18 18 17 17 17 17 17 17 19 21 22 23 25 29 31 36 40 41
26 24 22 21 19 17 16 16 15 15 15 15 16 16 17 24 27 30 31 34 37 41
20 18 16 16 15 14 14 14 14 13 13 13 13 14 16 19 24 26 28 32 38 43
16 15 14 13 13 12 12 12 12 12 12 12 13 14 15 16 21 27 28 30 31 35

GFSNIL_prec_cthk_108.txt.gz
RH
39 43 50 58 67 75 87 98 98 97 97 95 99 99 97 96 95 92 89 88 95 97
54 63 75 91 96 89 95 95 97 97 98 98 98 97 94 93 92 92 91 94 99 97
92 99 99 97 99 98 99 99 97 96 95 95 96 94 97 96 96 94 93 92 97 97
99 99 99 97 96 97 96 98 98 96 96 96 94 94 92 93 92 92 94 96 95 94
98 98 97 97 98 98 97 97 97 97 98 99 98 98 98 99 99 99 99 99 99 97
83 83 86 89 89 89 89 89 89 88 88 89 91 92 93 92 92 94 94 95 96 96
73 68 66 65 66 65 66 66 65 66 66 66 68 66 64 65 65 63 64 65 64 65
59 58 57 55 51 51 50 48 45 44 45 43 43 40 38 37 36 35 35 36 37 38
42 41 36 34 35 34 32 30 29 28 28 28 27 27 28 28 28 29 30 30 31 32
23 22 21 20 19 18 17 17 16 16 15 15 16 16 16 17 19 21 23 24 26 29
21 20 19 18 17 16 16 16 15 15 15 15 15 15 15 15 15 15 15 17 20 23
19 17 15 14 13 12 12 11 11 11 11 11 11 12 12 13 13 14 14 15 17 21
14 13 12 11 11 11 10 10 10 10 10 10 10 9 9 9 10 11 13 19 23 24
11 10 10 11 11 11 11 12 12 12 12 11 11 11 11 11 11 12 17 18 19 21

GFSNIL_prec_cthk_111.txt.gz
RH
51 49 43 39 39 40 39 42 43 40 51 57 64 81 90 83 86 91 85 82 88 88
59 50 44 44 44 46 48 62 68 62 75 94 94 95 98 92 96 97 93 93 92 92
51 48 44 49 62 67 77 84 84 87 89 97 96 96 98 98 99 98 97 97 99 97
67 77 77 86 97 97 94 97 94 93 97 97 97 94 98 98 98 98 98 97 98 98
99 99 99 97 98 97 97 97 94 99 99 98 98 98 96 96 96 97 97 97 98 96
88 89 92 93 93 92 91 91 93 94 93 90 88 94 96 96 97 98 96 98 98 99
84 81 78 78 78 81 80 80 76 72 73 75 73 75 74 80 80 84 82 84 85 86
71 71 70 65 64 63 61 61 63 58 57 63 50 51 49 49 50 50 49 49 52 52
59 53 49 48 45 43 38 37 37 37 38 37 35 33 34 34 32 31 29 29 29 29
36 34 28 25 25 23 21 21 19 17 15 13 13 13 13 13 13 13 13 13 14 14
20 17 15 13 12 11 9 8 8 7 7 7 7 8 8 8 9 9 10 12 13 14
12 9 8 6 6 7 7 8 9 9 10 10 10 10 10 10 10 10 9 9 9 10
8 8 9 10 11 12 13 13 13 13 14 14 14 14 15 15 16 16 15 14 13 11
11 12 13 14 14 14 14 13 13 13 13 13 14 14 16 21 25 25 25 24 20 20

GFSNIL_prec_cthk_114.txt.gz
RH
29 45 52 53 56 57 53 50 49 49 49 46 45 46 46 47 50 56 60 69 86 84
46 54 57 53 52 51 50 47 45 42 41 41 45 48 55 62 64 79 82 84 87 91
62 64 56 48 50 47 45 44 46 48 54 74 78 77 72 79 84 94 96 96 95 94
76 70 64 59 53 49 49 56 58 74 86 83 84 84 85 86 91 96 97 97 95 95
71 66 63 57 57 71 83 87 90 97 97 93 95 92 90 95 94 95 96 98 99 98
87 88 89 89 93 97 96 95 93 93 97 95 93 93 91 94 94 93 98 98 98 98
91 92 93 93 93 95 91 90 90 88 84 89 88 79 79 82 87 90 92 91 92 94
89 85 80 72 72 74 76 75 73 73 72 68 67 68 68 57 58 55 57 60 62 64
70 66 61 60 56 55 54 51 47 45 49 42 41 39 40 37 36 36 36 35 38 39
43 43 47 44 39 35 32 30 29 23 22 21 20 17 12 10 9 9 9 9 10 10
25 19 22 10 9 9 7 7 7 7 7 7 7 7 8 8 8 9 9 9 9 10
8 7 8 8 8 8 8 9 9 9 9 9 9 9 10 10 12 15 17 17 17 15
9 9 9 9 9 10 10 10 10 11 12 13 14 15 15 22 23 26 29 31 32 31
11 11 12 12 13 13 14 14 15 16 17 18 18 19 19 24 27 27 28 34 34 32

GFSNIL_prec_cthk_117.txt.gz
RH
42 40 33 29 37 53 66 72 81 82 79 72 69 64 61 57 54 52 49 45 46 47
52 50 42 34 51 53 66 74 76 75 70 68 64 59 56 52 51 46 43 45 49 54
70 63 60 62 63 62 64 74 68 65 61 60 56 54 53 51 52 63 72 67 71 82
88 82 79 75 72 64 65 55 49 50 53 59 59 54 57 64 80 80 82 87 86 88
88 86 84 80 76 70 64 56 55 55 57 56 56 59 81 85 90 84 90 90 94 95
96 89 89 82 79 71 67 62 60 60 60 85 92 91 96 95 92 93 97 93 96 98
87 94 82 74 69 66 72 87 94 93 92 91 93 92 91 89 88 84 88 92 93 94
95 95 92 89 82 82 87 96 96 92 91 89 84 78 89 90 84 83 69 70 65 59
79 82 78 72 70 67 65 65 69 73 70 64 67 69 52 46 45 49 44 38 33 31
49 46 49 43 41 42 39 36 31 28 31 30 26 21 22 22 20 18 16 12 10 9
22 23 21 27 22 11 16 18 14 9 8 9 10 7 7 6 7 8 10 11 12 13
10 11 9 9 9 10 12 10 8 8 8 9 10 10 10 10 13 18 20 20 20 19
10 10 10 10 10 10 10 10 11 12 13 14 15 15 15 15 19 22 22 23 26 28
12 11 11 11 11 11 12 14 17 20 24 25 27 26 26 29 32 32 31 32 32 35